| time (UTC) | temp C | wind direction | speed KPH | gust KPH | rain 1hr cm | rain 24hr cm | rain mn cm | humidity % | barometer mb |
| 20260507125004 | 5 | 273 | 1.6 | 8.0 | 0.00 | 0.00 | 0.00 | 78 | 1012.0 |
| 20260507124504 | 5 | 288 | 1.6 | 6.4 | 0.00 | 0.00 | 0.00 | 77 | 1012.0 |
| 20260507123004 | 4 | 242 | 1.6 | 8.0 | 0.00 | 0.00 | 0.00 | 79 | 1011.8 |
| 20260507122504 | 4 | 265 | 1.6 | 9.7 | 0.00 | 0.00 | 0.00 | 79 | 1011.9 |
| 20260507122004 | 4 | 266 | 3.2 | 9.7 | 0.00 | 0.00 | 0.00 | 80 | 1011.8 |
| 20260507121504 | 4 | 255 | 3.2 | 9.7 | 0.00 | 0.00 | 0.00 | 80 | 1011.8 |
| 20260507121004 | 3 | 253 | 3.2 | 9.7 | 0.00 | 0.00 | 0.00 | 80 | 1011.8 |
| 20260507120504 | 3 | 254 | 1.6 | 6.4 | 0.00 | 0.00 | 0.00 | 80 | 1011.9 |
| 20260507120005 | 3 | 265 | 1.6 | 6.4 | 0.00 | 0.00 | 0.00 | 81 | 1011.8 |
| 20260507115504 | 3 | 261 | 1.6 | 6.4 | 0.00 | 0.00 | 0.00 | 81 | 1011.7 |
| 20260507115005 | 3 | 255 | 1.6 | 8.0 | 0.00 | 0.00 | 0.00 | 82 | 1011.9 |
| 20260507114504 | 3 | 270 | 1.6 | 8.0 | 0.00 | 0.00 | 0.00 | 82 | 1012.0 |
| 20260507114004 | 3 | 270 | 1.6 | 4.8 | 0.00 | 0.00 | 0.00 | 82 | 1011.9 |
| 20260507113504 | 3 | 245 | 1.6 | 6.4 | 0.00 | 0.00 | 0.00 | 82 | 1011.9 |
| 20260507112504 | 3 | 286 | 0.0 | 6.4 | 0.00 | 0.00 | 0.00 | 81 | 1012.0 |
| 20260507112004 | 3 | 280 | 1.6 | 11.3 | 0.00 | 0.00 | 0.00 | 81 | 1012.0 |
| 20260507111506 | 3 | 277 | 1.6 | 11.3 | 0.00 | 0.00 | 0.00 | 81 | 1012.0 |
| 20260507111004 | 3 | 274 | 3.2 | 12.9 | 0.00 | 0.00 | 0.00 | 81 | 1012.1 |
| 20260507110504 | 3 | 265 | 3.2 | 12.9 | 0.00 | 0.00 | 0.00 | 81 | 1012.1 |
| 20260507104504 | 3 | 243 | 3.2 | 8.0 | 0.00 | 0.00 | 0.00 | 81 | 1012.3 |
| 20260507104004 | 3 | 244 | 3.2 | 12.9 | 0.00 | 0.00 | 0.00 | 80 | 1012.4 |
| 20260507103504 | 3 | 237 | 4.8 | 14.5 | 0.00 | 0.00 | 0.00 | 80 | 1012.3 |
| 20260507103004 | 3 | 237 | 4.8 | 14.5 | 0.00 | 0.00 | 0.00 | 80 | 1012.3 |
| 20260507102504 | 3 | 238 | 4.8 | 14.5 | 0.00 | 0.00 | 0.00 | 79 | 1012.4 |
| 20260507102006 | 3 | 240 | 4.8 | 12.9 | 0.00 | 0.00 | 0.00 | 79 | 1012.5 |
| 20260507101504 | 4 | 246 | 4.8 | 12.9 | 0.00 | 0.00 | 0.00 | 78 | 1012.6 |
| 20260507101004 | 4 | 244 | 3.2 | 12.9 | 0.00 | 0.00 | 0.00 | 78 | 1012.6 |
| 20260507100011 | 4 | 240 | 4.8 | 14.5 | 0.00 | 0.00 | 0.00 | 77 | 1012.8 |
| 20260507095505 | 4 | 240 | 4.8 | 14.5 | 0.00 | 0.00 | 0.00 | 77 | 1012.8 |
| 20260507095004 | 4 | 241 | 4.8 | 14.5 | 0.00 | 0.00 | 0.00 | 77 | 1012.9 |
| 20260507094004 | 5 | 232 | 6.4 | 19.3 | 0.00 | 0.00 | 0.00 | 76 | 1012.9 |
| 20260507093504 | 5 | 233 | 6.4 | 19.3 | 0.00 | 0.00 | 0.00 | 76 | 1013.0 |
| 20260507093004 | 5 | 244 | 4.8 | 16.1 | 0.00 | 0.00 | 0.00 | 75 | 1013.0 |
| 20260507092004 | 5 | 237 | 6.4 | 17.7 | 0.00 | 0.00 | 0.00 | 75 | 1013.1 |
| 20260507091504 | 5 | 240 | 6.4 | 17.7 | 0.00 | 0.00 | 0.00 | 75 | 1013.0 |
| 20260507091004 | 5 | 241 | 4.8 | 17.7 | 0.00 | 0.00 | 0.00 | 75 | 1013.2 |
| 20260507090504 | 5 | 240 | 4.8 | 17.7 | 0.00 | 0.00 | 0.00 | 75 | 1013.2 |
| 20260507085504 | 5 | 234 | 6.4 | 12.9 | 0.00 | 0.00 | 0.00 | 75 | 1013.4 |
| 20260507085004 | 5 | 240 | 4.8 | 11.3 | 0.00 | 0.00 | 0.00 | 76 | 1013.6 |
| 20260507084505 | 5 | 234 | 4.8 | 16.1 | 0.00 | 0.00 | 0.00 | 76 | 1013.6 |
| 20260507084004 | 5 | 236 | 4.8 | 16.1 | 0.00 | 0.00 | 0.00 | 76 | 1013.7 |
| 20260507083504 | 5 | 238 | 4.8 | 12.9 | 0.00 | 0.00 | 0.00 | 77 | 1013.7 |
| 20260507083004 | 5 | 234 | 3.2 | 12.9 | 0.00 | 0.00 | 0.00 | 77 | 1013.8 |
| 20260507082504 | 5 | 242 | 3.2 | 14.5 | 0.00 | 0.00 | 0.00 | 77 | 1013.9 |
| 20260507082004 | 5 | 245 | 4.8 | 17.7 | 0.00 | 0.00 | 0.00 | 77 | 1014.0 |
| 20260507081504 | 5 | 243 | 4.8 | 17.7 | 0.00 | 0.00 | 0.00 | 77 | 1014.0 |
| 20260507080504 | 5 | 239 | 4.8 | 17.7 | 0.00 | 0.00 | 0.00 | 78 | 1014.2 |
| 20260507080005 | 5 | 249 | 6.4 | 17.7 | 0.00 | 0.00 | 0.00 | 78 | 1014.2 |
| 20260507075505 | 5 | 248 | 4.8 | 17.7 | 0.00 | 0.00 | 0.00 | 78 | 1014.3 |
| 20260507075004 | 5 | 237 | 4.8 | 16.1 | 0.00 | 0.00 | 0.00 | 78 | 1014.5 |
| 20260507074504 | 5 | 236 | 6.4 | 16.1 | 0.00 | 0.00 | 0.00 | 78 | 1014.5 |
| 20260507074004 | 5 | 237 | 4.8 | 14.5 | 0.00 | 0.00 | 0.00 | 78 | 1014.4 |
| 20260507073504 | 5 | 238 | 4.8 | 12.9 | 0.00 | 0.00 | 0.00 | 79 | 1014.7 |
| 20260507073004 | 5 | 241 | 4.8 | 11.3 | 0.00 | 0.00 | 0.00 | 78 | 1014.6 |
| 20260507072504 | 5 | 242 | 4.8 | 17.7 | 0.00 | 0.00 | 0.00 | 78 | 1014.7 |
| 20260507071504 | 5 | 238 | 4.8 | 17.7 | 0.00 | 0.00 | 0.00 | 79 | 1014.7 |
| 20260507070504 | 5 | 234 | 4.8 | 14.5 | 0.00 | 0.00 | 0.00 | 79 | 1014.8 |
| 20260507065503 | 5 | 233 | 4.8 | 14.5 | 0.00 | 0.00 | 0.00 | 78 | 1014.7 |
| 20260507065004 | 5 | 226 | 4.8 | 16.1 | 0.00 | 0.00 | 0.00 | 78 | 1014.7 |
| 20260507064504 | 5 | 229 | 6.4 | 16.1 | 0.00 | 0.00 | 0.00 | 78 | 1014.7 |
| 20260507064004 | 5 | 232 | 6.4 | 16.1 | 0.00 | 0.00 | 0.00 | 78 | 1014.8 |
| 20260507062504 | 6 | 225 | 4.8 | 14.5 | 0.00 | 0.00 | 0.00 | 77 | 1015.0 |
| 20260507062004 | 6 | 225 | 6.4 | 14.5 | 0.00 | 0.00 | 0.00 | 77 | 1015.0 |
| 20260507061004 | 6 | 223 | 6.4 | 17.7 | 0.00 | 0.00 | 0.00 | 77 | 1015.1 |
| 20260507060504 | 6 | 221 | 6.4 | 19.3 | 0.00 | 0.00 | 0.00 | 76 | 1015.1 |
| 20260507060004 | 6 | 219 | 8.0 | 19.3 | 0.00 | 0.00 | 0.00 | 76 | 1015.1 |
| 20260507055504 | 6 | 228 | 6.4 | 19.3 | 0.00 | 0.00 | 0.00 | 76 | 1015.2 |
| 20260507055004 | 6 | 228 | 8.0 | 19.3 | 0.00 | 0.00 | 0.00 | 75 | 1015.2 |
| 20260507054504 | 6 | 227 | 6.4 | 24.1 | 0.00 | 0.00 | 0.00 | 75 | 1015.2 |
| 20260507054004 | 6 | 229 | 8.0 | 24.1 | 0.00 | 0.00 | 0.00 | 74 | 1015.2 |
| 20260507053504 | 6 | 224 | 9.7 | 19.3 | 0.00 | 0.00 | 0.00 | 74 | 1015.3 |
| 20260507053005 | 6 | 222 | 9.7 | 20.9 | 0.00 | 0.00 | 0.00 | 74 | 1015.4 |
| 20260507052505 | 6 | 224 | 8.0 | 20.9 | 0.00 | 0.00 | 0.00 | 74 | 1015.5 |
| 20260507052003 | 6 | 224 | 6.4 | 19.3 | 0.00 | 0.00 | 0.00 | 73 | 1015.4 |
| 20260507051004 | 6 | 227 | 9.7 | 20.9 | 0.00 | 0.00 | 0.00 | 73 | 1015.5 |
| 20260507050504 | 6 | 232 | 8.0 | 20.9 | 0.00 | 0.00 | 0.00 | 73 | 1015.6 |
| 20260507050006 | 6 | 226 | 8.0 | 20.9 | 0.00 | 0.00 | 0.00 | 72 | 1015.7 |
| 20260507045504 | 6 | 220 | 8.0 | 16.1 | 0.00 | 0.00 | 0.00 | 72 | 1015.7 |
| 20260507045004 | 7 | 222 | 8.0 | 17.7 | 0.00 | 0.00 | 0.00 | 72 | 1015.7 |
| 20260507044004 | 7 | 227 | 8.0 | 19.3 | 0.00 | 0.00 | 0.00 | 71 | 1015.9 |
| 20260507043504 | 7 | 228 | 8.0 | 25.7 | 0.00 | 0.00 | 0.00 | 71 | 1016.0 |
| 20260507043004 | 7 | 228 | 9.7 | 25.7 | 0.00 | 0.00 | 0.00 | 71 | 1016.1 |
| 20260507042004 | 7 | 228 | 6.4 | 20.9 | 0.00 | 0.00 | 0.00 | 70 | 1016.2 |
| 20260507041503 | 7 | 227 | 8.0 | 19.3 | 0.00 | 0.00 | 0.00 | 69 | 1016.2 |
| 20260507040004 | 7 | 227 | 6.4 | 16.1 | 0.00 | 0.00 | 0.00 | 67 | 1016.4 |
| 20260507035504 | 7 | 224 | 6.4 | 16.1 | 0.00 | 0.00 | 0.00 | 66 | 1016.4 |
| 20260507035009 | 7 | 222 | 6.4 | 14.5 | 0.00 | 0.00 | 0.00 | 65 | 1016.4 |
| 20260507034505 | 7 | 222 | 6.4 | 14.5 | 0.00 | 0.00 | 0.00 | 64 | 1016.4 |
| 20260507033504 | 7 | 226 | 4.8 | 14.5 | 0.00 | 0.00 | 0.00 | 63 | 1016.3 |
| 20260507033004 | 7 | 226 | 4.8 | 16.1 | 0.00 | 0.00 | 0.00 | 62 | 1016.4 |
| 20260507032004 | 7 | 219 | 6.4 | 16.1 | 0.00 | 0.00 | 0.00 | 59 | 1016.4 |
| 20260507031504 | 8 | 222 | 6.4 | 16.1 | 0.00 | 0.00 | 0.00 | 58 | 1016.4 |
| 20260507031004 | 8 | 226 | 4.8 | 12.9 | 0.00 | 0.00 | 0.00 | 57 | 1016.4 |
| 20260507030504 | 8 | 228 | 4.8 | 9.7 | 0.00 | 0.00 | 0.00 | 56 | 1016.4 |
| 20260507030003 | 8 | 226 | 4.8 | 11.3 | 0.00 | 0.00 | 0.00 | 55 | 1016.4 |
| 20260507025503 | 8 | 221 | 4.8 | 11.3 | 0.00 | 0.00 | 0.00 | 53 | 1016.4 |
| 20260507024003 | 8 | 221 | 3.2 | 12.9 | 0.00 | 0.00 | 0.00 | 50 | 1016.4 |
| 20260507023004 | 9 | 230 | 1.6 | 6.4 | 0.00 | 0.00 | 0.00 | 48 | 1016.3 |
| 20260507022504 | 9 | 228 | 1.6 | 6.4 | 0.00 | 0.00 | 0.00 | 47 | 1016.3 |
| 20260507022003 | 10 | 234 | 1.6 | 9.7 | 0.00 | 0.00 | 0.00 | 46 | 1016.3 |
| 20260507021504 | 10 | 231 | 3.2 | 9.7 | 0.00 | 0.00 | 0.00 | 45 | 1016.3 |
| 20260507020504 | 10 | 238 | 1.6 | 8.0 | 0.00 | 0.00 | 0.00 | 43 | 1016.2 |
| 20260507020004 | 10 | 225 | 3.2 | 11.3 | 0.00 | 0.00 | 0.00 | 43 | 1016.2 |
| 20260507015004 | 11 | 240 | 3.2 | 9.7 | 0.00 | 0.00 | 0.00 | 42 | 1016.2 |
| 20260507014503 | 11 | 235 | 3.2 | 9.7 | 0.00 | 0.00 | 0.00 | 41 | 1016.2 |
| 20260507014004 | 11 | 237 | 3.2 | 14.5 | 0.00 | 0.00 | 0.00 | 40 | 1016.2 |
| 20260507013004 | 11 | 236 | 3.2 | 11.3 | 0.00 | 0.00 | 0.00 | 38 | 1016.2 |
| 20260507012503 | 12 | 241 | 4.8 | 16.1 | 0.00 | 0.00 | 0.00 | 37 | 1016.2 |
| 20260507012003 | 12 | 241 | 4.8 | 16.1 | 0.00 | 0.00 | 0.00 | 36 | 1016.3 |
| 20260507011503 | 12 | 250 | 4.8 | 16.1 | 0.00 | 0.00 | 0.00 | 37 | 1016.3 |
| 20260507011003 | 12 | 270 | 3.2 | 11.3 | 0.00 | 0.00 | 0.00 | 37 | 1016.3 |
| 20260507010504 | 12 | 281 | 3.2 | 12.9 | 0.00 | 0.00 | 0.00 | 36 | 1016.3 |
| 20260507010004 | 12 | 280 | 3.2 | 12.9 | 0.00 | 0.00 | 0.00 | 35 | 1016.3 |
| 20260507005504 | 12 | 277 | 1.6 | 6.4 | 0.00 | 0.00 | 0.00 | 36 | 1016.2 |
| 20260507005004 | 12 | 263 | 1.6 | 11.3 | 0.00 | 0.00 | 0.00 | 36 | 1016.2 |
| 20260507004004 | 12 | 271 | 3.2 | 14.5 | 0.00 | 0.00 | 0.00 | 34 | 1016.3 |
| 20260507003004 | 13 | 248 | 4.8 | 19.3 | 0.00 | 0.00 | 0.00 | 33 | 1016.4 |
| 20260507002504 | 13 | 283 | 4.8 | 20.9 | 0.00 | 0.00 | 0.00 | 33 | 1016.4 |
| 20260507002004 | 13 | 298 | 4.8 | 20.9 | 0.00 | 0.00 | 0.00 | 33 | 1016.3 |
| 20260507001503 | 13 | 295 | 3.2 | 11.3 | 0.00 | 0.00 | 0.00 | 35 | 1016.5 |
| 20260507001004 | 13 | 290 | 4.8 | 11.3 | 0.00 | 0.00 | 0.00 | 34 | 1016.4 |
| 20260507000004 | 12 | 268 | 4.8 | 12.9 | 0.00 | 0.00 | 0.00 | 36 | 1016.6 |
| 20260506234504 | 13 | 273 | 6.4 | 17.7 | 0.00 | 0.00 | 0.00 | 34 | 1016.8 |
| 20260506234004 | 13 | 270 | 6.4 | 17.7 | 0.00 | 0.03 | 0.00 | 34 | 1016.8 |
| 20260506232504 | 13 | 253 | 6.4 | 16.1 | 0.00 | 0.03 | 0.00 | 33 | 1016.9 |
| 20260506232004 | 13 | 266 | 6.4 | 16.1 | 0.00 | 0.03 | 0.00 | 34 | 1016.9 |
| 20260506231504 | 13 | 270 | 6.4 | 17.7 | 0.00 | 0.03 | 0.00 | 34 | 1016.9 |
| 20260506231004 | 13 | 260 | 8.0 | 17.7 | 0.00 | 0.03 | 0.00 | 33 | 1016.9 |
| 20260506230503 | 13 | 268 | 4.8 | 17.7 | 0.00 | 0.03 | 0.00 | 34 | 1016.9 |
| 20260506230003 | 13 | 275 | 4.8 | 12.9 | 0.00 | 0.05 | 0.00 | 35 | 1016.9 |
| 20260506225504 | 12 | 281 | 6.4 | 17.7 | 0.00 | 0.05 | 0.00 | 33 | 1017.0 |
| 20260506224504 | 12 | 302 | 6.4 | 16.1 | 0.00 | 0.05 | 0.00 | 33 | 1017.1 |
| 20260506224003 | 12 | 300 | 8.0 | 17.7 | 0.00 | 0.05 | 0.00 | 32 | 1017.1 |
| 20260506222504 | 13 | 287 | 8.0 | 17.7 | 0.00 | 0.05 | 0.00 | 32 | 1017.2 |
| 20260506221504 | 13 | 279 | 9.7 | 20.9 | 0.00 | 0.05 | 0.00 | 29 | 1017.4 |
| 20260506221004 | 14 | 280 | 6.4 | 24.1 | 0.00 | 0.05 | 0.00 | 30 | 1017.3 |
| 20260506220504 | 13 | 283 | 6.4 | 24.1 | 0.00 | 0.05 | 0.00 | 31 | 1017.3 |
| 20260506220004 | 13 | 271 | 6.4 | 19.3 | 0.00 | 0.05 | 0.00 | 31 | 1017.4 |
| 20260506215504 | 13 | 282 | 8.0 | 24.1 | 0.00 | 0.05 | 0.00 | 33 | 1017.7 |
| 20260506215004 | 12 | 286 | 4.8 | 24.1 | 0.00 | 0.05 | 0.00 | 33 | 1017.6 |
| 20260506214503 | 12 | 268 | 3.2 | 12.9 | 0.00 | 0.05 | 0.00 | 34 | 1017.7 |
| 20260506214004 | 12 | 279 | 6.4 | 25.7 | 0.00 | 0.05 | 0.00 | 35 | 1017.9 |
| 20260506213504 | 12 | 285 | 6.4 | 25.7 | 0.00 | 0.05 | 0.00 | 35 | 1017.8 |
| 20260506213004 | 12 | 285 | 6.4 | 14.5 | 0.00 | 0.05 | 0.00 | 36 | 1018.1 |
| 20260506212503 | 13 | 284 | 6.4 | 14.5 | 0.00 | 0.05 | 0.00 | 34 | 1018.1 |
| 20260506212003 | 13 | 268 | 6.4 | 20.9 | 0.00 | 0.05 | 0.00 | 35 | 1018.2 |
| 20260506211504 | 13 | 266 | 8.0 | 20.9 | 0.00 | 0.05 | 0.00 | 35 | 1018.2 |
| 20260506210504 | 13 | 236 | 8.0 | 22.5 | 0.00 | 0.05 | 0.00 | 33 | 1018.3 |
| 20260506210004 | 13 | 259 | 8.0 | 22.5 | 0.00 | 0.05 | 0.00 | 34 | 1018.5 |
| 20260506205503 | 12 | 276 | 6.4 | 22.5 | 0.00 | 0.05 | 0.00 | 36 | 1018.2 |
| 20260506205003 | 12 | 276 | 3.2 | 14.5 | 0.00 | 0.05 | 0.00 | 36 | 1018.3 |
| 20260506204504 | 12 | 217 | 1.6 | 11.3 | 0.00 | 0.05 | 0.00 | 37 | 1018.4 |
| 20260506203504 | 12 | 239 | 4.8 | 14.5 | 0.00 | 0.05 | 0.00 | 35 | 1018.6 |
| 20260506203004 | 12 | 249 | 6.4 | 16.1 | 0.00 | 0.05 | 0.00 | 38 | 1018.8 |
| 20260506202504 | 12 | 264 | 6.4 | 17.7 | 0.00 | 0.05 | 0.00 | 36 | 1018.7 |
| 20260506202003 | 12 | 263 | 4.8 | 17.7 | 0.00 | 0.05 | 0.00 | 36 | 1018.7 |
| 20260506200504 | 12 | 274 | 6.4 | 22.5 | 0.00 | 0.05 | 0.00 | 36 | 1018.9 |
| 20260506200004 | 12 | 272 | 4.8 | 16.1 | 0.00 | 0.05 | 0.00 | 36 | 1018.9 |
| 20260506195504 | 12 | 253 | 4.8 | 14.5 | 0.00 | 0.05 | 0.00 | 35 | 1019.0 |
| 20260506195003 | 12 | 225 | 4.8 | 16.1 | 0.00 | 0.05 | 0.00 | 35 | 1018.9 |
| 20260506194504 | 12 | 235 | 4.8 | 16.1 | 0.00 | 0.05 | 0.00 | 36 | 1018.9 |
| 20260506194004 | 12 | 260 | 4.8 | 14.5 | 0.00 | 0.05 | 0.00 | 37 | 1019.0 |
| 20260506193504 | 12 | 276 | 3.2 | 11.3 | 0.00 | 0.05 | 0.00 | 36 | 1019.1 |
| 20260506193003 | 11 | 270 | 1.6 | 11.3 | 0.00 | 0.05 | 0.00 | 37 | 1019.1 |
| 20260506192504 | 11 | 254 | 4.8 | 14.5 | 0.00 | 0.05 | 0.00 | 37 | 1019.2 |
| 20260506192004 | 12 | 239 | 6.4 | 19.3 | 0.00 | 0.05 | 0.00 | 37 | 1019.2 |
| 20260506191004 | 11 | 310 | 4.8 | 17.7 | 0.00 | 0.05 | 0.00 | 36 | 1019.3 |
| 20260506190504 | 11 | 329 | 4.8 | 27.4 | 0.00 | 0.05 | 0.00 | 35 | 1019.4 |
| 20260506190004 | 11 | 329 | 3.2 | 27.4 | 0.00 | 0.05 | 0.00 | 35 | 1019.3 |
| 20260506185504 | 11 | 270 | 3.2 | 12.9 | 0.00 | 0.05 | 0.00 | 38 | 1019.6 |
| 20260506185004 | 11 | 266 | 4.8 | 12.9 | 0.00 | 0.05 | 0.00 | 40 | 1019.7 |
| 20260506184504 | 11 | 282 | 6.4 | 12.9 | 0.00 | 0.05 | 0.00 | 40 | 1019.7 |
| 20260506184003 | 11 | 296 | 4.8 | 12.9 | 0.00 | 0.05 | 0.00 | 40 | 1019.8 |
| 20260506183503 | 11 | 265 | 4.8 | 30.6 | 0.00 | 0.05 | 0.00 | 37 | 1019.8 |
| 20260506183004 | 11 | 277 | 4.8 | 30.6 | 0.00 | 0.05 | 0.00 | 40 | 1019.9 |
| 20260506182004 | 11 | 322 | 6.4 | 12.9 | 0.00 | 0.05 | 0.00 | 41 | 1020.1 |
| 20260506181503 | 11 | 302 | 4.8 | 11.3 | 0.00 | 0.05 | 0.00 | 43 | 1020.2 |
| 20260506181003 | 11 | 262 | 4.8 | 9.7 | 0.00 | 0.05 | 0.00 | 40 | 1020.3 |
| 20260506180504 | 11 | 172 | 3.2 | 9.7 | 0.00 | 0.05 | 0.00 | 42 | 1020.3 |
| 20260506180005 | 11 | 211 | 3.2 | 11.3 | 0.00 | 0.05 | 0.00 | 42 | 1020.4 |
| 20260506175504 | 10 | 312 | 3.2 | 11.3 | 0.00 | 0.05 | 0.00 | 42 | 1020.4 |
| 20260506174003 | 10 | 291 | 4.8 | 9.7 | 0.00 | 0.05 | 0.00 | 42 | 1020.4 |
| 20260506173504 | 9 | 283 | 6.4 | 12.9 | 0.00 | 0.05 | 0.00 | 44 | 1020.5 |
| 20260506173004 | 10 | 281 | 4.8 | 12.9 | 0.00 | 0.05 | 0.00 | 43 | 1020.4 |
| 20260506172003 | 10 | 319 | 4.8 | 9.7 | 0.00 | 0.05 | 0.00 | 44 | 1020.4 |
| 20260506171003 | 9 | 267 | 3.2 | 16.1 | 0.00 | 0.05 | 0.00 | 44 | 1020.4 |
| 20260506170504 | 9 | 301 | 4.8 | 16.1 | 0.00 | 0.05 | 0.00 | 44 | 1020.4 |
| 20260506170004 | 9 | 330 | 3.2 | 12.9 | 0.00 | 0.08 | 0.00 | 44 | 1020.4 |
| 20260506165503 | 10 | 31 | 3.2 | 12.9 | 0.00 | 0.08 | 0.00 | 45 | 1020.5 |
| 20260506163503 | 9 | 33 | 4.8 | 12.9 | 0.00 | 0.10 | 0.00 | 45 | 1020.5 |
| 20260506163003 | 9 | 17 | 6.4 | 14.5 | 0.00 | 0.10 | 0.00 | 46 | 1020.4 |
| 20260506162504 | 9 | 334 | 6.4 | 14.5 | 0.00 | 0.10 | 0.00 | 46 | 1020.6 |
| 20260506162004 | 8 | 300 | 4.8 | 11.3 | 0.00 | 0.10 | 0.00 | 48 | 1020.6 |
| 20260506161504 | 9 | 328 | 4.8 | 14.5 | 0.00 | 0.10 | 0.00 | 47 | 1020.6 |
| 20260506161004 | 9 | 12 | 8.0 | 14.5 | 0.00 | 0.10 | 0.00 | 46 | 1020.5 |
| 20260506160503 | 9 | 25 | 6.4 | 14.5 | 0.00 | 0.10 | 0.00 | 48 | 1020.5 |
| 20260506160003 | 8 | 55 | 6.4 | 14.5 | 0.00 | 0.13 | 0.00 | 50 | 1020.5 |
| 20260506155504 | 8 | 77 | 6.4 | 14.5 | 0.00 | 0.13 | 0.00 | 47 | 1020.2 |
| 20260506154504 | 8 | 71 | 3.2 | 9.7 | 0.00 | 0.13 | 0.00 | 48 | 1020.1 |
| 20260506154003 | 8 | 8 | 1.6 | 11.3 | 0.00 | 0.15 | 0.00 | 47 | 1020.0 |
| 20260506153503 | 8 | 4 | 1.6 | 11.3 | 0.00 | 0.15 | 0.00 | 46 | 1020.1 |
| 20260506153004 | 8 | 1 | 1.6 | 11.3 | 0.00 | 0.15 | 0.00 | 47 | 1020.0 |
| 20260506152503 | 8 | 356 | 1.6 | 11.3 | 0.00 | 0.15 | 0.00 | 47 | 1020.1 |
| 20260506152004 | 8 | 254 | 1.6 | 6.4 | 0.00 | 0.15 | 0.00 | 49 | 1020.2 |
| 20260506151504 | 8 | 236 | 1.6 | 6.4 | 0.00 | 0.15 | 0.00 | 48 | 1020.1 |
| 20260506151003 | 8 | 313 | 1.6 | 8.0 | 0.00 | 0.15 | 0.00 | 50 | 1020.1 |
| 20260506150504 | 8 | 60 | 3.2 | 16.1 | 0.00 | 0.15 | 0.00 | 49 | 1020.2 |
| 20260506150004 | 8 | 73 | 3.2 | 16.1 | 0.00 | 0.15 | 0.00 | 50 | 1020.2 |
| 20260506145504 | 8 | 33 | 1.6 | 11.3 | 0.00 | 0.15 | 0.00 | 49 | 1020.2 |
| 20260506145004 | 8 | 300 | 1.6 | 4.8 | 0.00 | 0.15 | 0.00 | 49 | 1020.3 |
| 20260506144503 | 8 | 90 | 1.6 | 11.3 | 0.00 | 0.15 | 0.00 | 54 | 1020.4 |
| 20260506144003 | 7 | 86 | 4.8 | 11.3 | 0.00 | 0.15 | 0.00 | 51 | 1020.3 |
| 20260506143504 | 8 | 84 | 3.2 | 9.7 | 0.00 | 0.18 | 0.00 | 50 | 1020.3 |
| 20260506142503 | 7 | 83 | 0.0 | 4.8 | 0.00 | 0.18 | 0.00 | 52 | 1020.4 |
| 20260506142003 | 7 | 86 | 0.0 | 4.8 | 0.00 | 0.18 | 0.00 | 53 | 1020.3 |
| 20260506141504 | 7 | 88 | 0.0 | 3.2 | 0.00 | 0.18 | 0.00 | 55 | 1020.3 |
| 20260506141004 | 7 | 83 | 1.6 | 6.4 | 0.00 | 0.20 | 0.00 | 57 | 1020.3 |
| 20260506140504 | 6 | 81 | 1.6 | 6.4 | 0.00 | 0.20 | 0.00 | 57 | 1020.3 |
| 20260506140004 | 6 | 78 | 1.6 | 6.4 | 0.00 | 0.20 | 0.00 | 59 | 1020.2 |
| 20260506135003 | 6 | 82 | 0.0 | 4.8 | 0.00 | 0.20 | 0.00 | 60 | 1020.2 |
| 20260506134504 | 6 | 82 | 0.0 | 6.4 | 0.00 | 0.23 | 0.00 | 62 | 1020.2 |
| 20260506133503 | 5 | 83 | 3.2 | 8.0 | 0.00 | 0.23 | 0.00 | 65 | 1019.9 |
| 20260506133004 | 5 | 83 | 1.6 | 4.8 | 0.00 | 0.25 | 0.00 | 64 | 1019.8 |
| 20260506132003 | 5 | 76 | 1.6 | 4.8 | 0.00 | 0.28 | 0.00 | 67 | 1019.9 |
| 20260506131503 | 5 | 80 | 1.6 | 4.8 | 0.00 | 0.28 | 0.00 | 67 | 1019.9 |
| 20260506131003 | 5 | 80 | 1.6 | 4.8 | 0.00 | 0.28 | 0.00 | 68 | 1019.9 |
| 20260506130503 | 5 | 79 | 3.2 | 4.8 | 0.00 | 0.28 | 0.00 | 70 | 1019.9 |
| 20260506130004 | 5 | 79 | 3.2 | 4.8 | 0.00 | 0.30 | 0.00 | 69 | 1019.7 |
| 20260506125503 | 4 | 79 | 1.6 | 4.8 | 0.00 | 0.30 | 0.00 | 70 | 1019.6 |